Location: Newark
(46.7636°N, 1.8358°W)
Time: 02:40:19
(UTC+00:00)

Tiros 1 despin weight - Visible Passes

Search period start: 16 October 2019 00:00
Search period end: 26 October 2019 00:00
Orbit: 594 x 643 km, 48.2° (Epoch: 15 October)

Date Brightness Start Highest point End Pass type
(mag) Time Alt. Az. Time Alt. Az. Time Alt. Az.
16 Oct ? 02:42:54 14° E 02:42:54 14° E 02:43:37 10° E visible
16 Oct ? 04:19:58 66° W 04:20:37 85° NNW 04:25:19 10° ENE visible
17 Oct ? 02:58:50 20° E 02:58:50 20° E 03:00:19 10° ENE visible
17 Oct ? 04:35:54 45° WNW 04:37:17 75° N 04:41:59 10° E visible
18 Oct ? 03:14:46 27° ENE 03:14:46 27° ENE 03:16:56 10° ENE visible
18 Oct ? 04:51:49 32° WNW 04:53:58 74° N 04:58:39 10° E visible
19 Oct ? 03:30:41 37° ENE 03:30:41 37° ENE 03:33:34 10° ENE visible
19 Oct ? 05:07:45 24° WNW 05:10:38 83° NNE 05:15:19 10° E visible
20 Oct ? 03:46:38 51° ENE 03:46:38 51° ENE 03:50:14 10° E visible
20 Oct ? 05:23:42 18° WNW 05:27:15 79° SSW 05:31:55 10° ESE visible
21 Oct ? 04:02:37 70° NE 04:02:37 70° NE 04:06:55 10° E visible
21 Oct ? 05:39:41 13° WNW 05:43:46 56° SSW 05:48:20 10° SE visible
22 Oct ? 02:41:34 11° E 02:41:34 11° E 02:41:48 10° E visible
22 Oct ? 04:18:38 81° WNW 04:18:52 89° NE 04:23:34 10° ESE visible
22 Oct ? 05:55:54 10° W 06:00:11 36° SSW 06:04:27 10° SSE visible
23 Oct ? 02:57:38 15° E 02:57:38 15° E 02:58:29 10° E visible
23 Oct ? 04:34:42 58° WSW 04:35:26 69° SSW 04:40:06 10° ESE visible
24 Oct ? 03:13:47 19° E 03:13:47 19° E 03:15:10 10° E visible
24 Oct ? 04:50:51 39° WSW 04:51:55 47° SSW 04:56:24 10° SE visible
25 Oct ? 03:29:59 23° ESE 03:29:59 23° ESE 03:31:46 10° ESE visible
25 Oct ? 05:07:04 26° WSW 05:08:18 29° SW 05:12:20 10° SSE visible
